カタログに戻る

CZ-4C R/B

運用中SSO
NORAD 38355·ROCKET BODY·🇨🇳 China

打ち上げ May 29, 2012 から Taiyuan Satellite Launch Center

Loading…

次のパス (今後24時間)

TLE

最新Source: Space-Track

元期: Sep 14, 2026, 15:39 UTC

1 38355U 12029B   26257.65236420 -.00000011  00000-0  53046-4 0  9993
2 38355  99.8437 145.7928 0161213 286.1372  72.2067 13.46279806702497

AllMySatでCZ-4C R/Bをリアルタイム追跡

Download on the App Store